#timestamp,LO_Frequency,Hit 
1499076015.5,286046947.4,N
1499076035.4,286046944.3,N
1499076055.2,286046946.2,N
1499076075.0,286046946.8,N
1499076075.9,286046946.8,N
1499076095.8,286046944.1,N
1499076115.6,286046944.4,N
1499076135.4,286046942.5,N
1499076155.3,286046943.4,N
1499076175.1,286046941.3,N
1499076176.0,286046941.3,N
1499076195.8,286046943.4,N
1499076215.7,286046943.1,N
1499076235.5,286046941.6,N
1499076255.3,286046941.6,N
1499076275.2,286046941.6,N
1499076295.9,286046941.5,N
1499076315.7,286046941.6,N
1499076335.6,286046943.3,N
1499076355.4,286046943.6,N
1499076375.2,286046940.6,N
1499076395.0,286046940.9,N
1499076396.0,286046940.9,N
1499076415.8,286046941.1,N
1499076435.6,286046941.6,N
1499076455.4,286046941.6,N
1499076475.3,286046942.0,N
1499076495.1,286046941.5,N
1499076515.8,286046940.8,N
1499076535.7,286046939.0,N
1499076555.5,286046939.8,N
1499076575.3,286046938.8,N
1499076595.2,286046938.8,N
1499076615.9,286046937.2,N
1499076635.7,286046934.1,N
1499076655.6,286046936.4,N
1499076675.4,286046936.5,N
1499076695.2,286046936.4,N
1499076715.1,286046935.9,N
1499076716.0,286046935.9,N
1499076735.8,286046935.8,N
1499076755.6,286046936.1,N
1499076775.4,286046938.1,N
1499076795.3,286046936.0,N
1499076815.1,286046934.5,N
1499076835.8,286046934.9,N
1499076855.7,286046932.8,N
1499076875.5,286046932.6,N
1499076895.3,286046933.2,N
1499076915.2,286046931.5,N
1499076935.9,286046931.8,N
1499076955.7,286046932.2,N
1499076975.6,286046929.5,N
1499076995.4,286046930.8,N
1499077015.2,286046928.0,N
1499077035.0,286046928.5,N
1499077036.0,286046928.5,N
1499077055.8,286046929.0,N
1499077075.6,286046926.1,N
1499077095.4,286046926.3,N
1499077115.3,286046926.7,N
1499077135.1,286046927.0,N
1499077155.8,286046926.3,N
1499077175.7,286046926.1,N
1499077195.5,286046929.0,N
1499077215.3,286046928.0,N
1499077235.2,286046928.7,N
1499077255.9,286046928.8,N
1499077275.7,286046928.1,N
1499077295.6,286046929.0,N
1499077315.4,286046926.7,N
1499077335.2,286046927.5,N
1499077355.0,286046924.6,N
1499077356.0,286046924.6,N
1499077375.8,286046925.1,N
1499077395.6,286046925.4,N
1499077415.4,286046925.8,N
1499077435.3,286046927.6,N
1499077455.1,286046925.8,N
1499077475.8,286046922.9,N
1499077495.7,286046923.2,N
1499077515.5,286046923.5,N
1499077535.3,286046923.2,N
1499077555.2,286046923.1,N
1499077575.9,286046923.9,N
1499077595.7,286046921.3,Y
1499077615.6,286046947.1,N
1499077635.4,286046946.5,N
1499077655.2,286046944.1,N
1499077675.1,286046946.6,N
1499077676.0,286046946.6,N
1499077695.8,286046943.8,N
1499077715.6,286046943.7,N
1499077735.5,286046944.4,N
1499077755.3,286046944.3,N
1499077775.1,286046946.4,N
1499077795.8,286046943.8,N
1499077815.7,286046944.4,N
1499077835.5,286046944.7,N
1499077855.3,286046942.2,N
1499077875.2,286046942.2,N
1499077895.9,286046943.0,N
1499077915.7,286046940.7,N
1499077935.6,286046941.5,N
1499077955.4,286046941.8,N
1499077975.2,286046941.6,N
1499077995.1,286046941.0,N
1499077996.0,286046941.0,N
1499078015.8,286046943.4,N
1499078035.6,286046943.1,N
1499078055.5,286046942.0,N
1499078075.3,286046941.9,N
1499078095.1,286046942.0,N
1499078115.8,286046937.4,N
1499078135.7,286046938.0,N
1499078155.5,286046936.0,N
1499078175.3,286046936.5,N
1499078195.2,286046936.8,N
1499078215.0,286046937.0,N
1499078215.9,286046937.0,N
1499078235.7,286046937.1,N
1499078255.6,286046937.2,N
1499078275.4,286046937.1,N
1499078295.2,286046937.2,N
1499078315.1,286046934.1,N
1499078316.0,286046934.1,N
1499078335.8,286046934.2,N
1499078355.6,286046937.2,N
1499078375.5,286046932.5,N
1499078395.3,286046934.8,N
1499078415.1,286046935.0,N
1499078435.9,286046933.1,N
1499078455.7,286046933.3,N
1499078475.5,286046935.6,N
1499078495.3,286046933.5,N
1499078515.2,286046931.1,N
1499078535.0,286046934.0,N
1499078535.9,286046934.0,N
1499078555.7,286046933.2,N
1499078575.6,286046931.4,N
1499078595.4,286046931.5,N
1499078615.2,286046930.2,N
1499078635.1,286046928.8,N
1499078636.0,286046928.8,N
1499078655.8,286046929.2,N
1499078675.6,286046927.3,N
1499078695.5,286046927.1,N
1499078715.3,286046926.3,N
1499078735.1,286046929.1,N
1499078755.9,286046928.8,N
1499078775.7,286046928.3,N
1499078795.5,286046930.3,N
1499078815.4,286046930.3,N
1499078835.2,286046928.0,N
1499078855.0,286046926.3,N
1499078855.9,286046926.3,N
1499078875.8,286046922.9,N
1499078895.6,286046923.9,N
1499078915.4,286046923.5,N
1499078935.2,286046923.5,N
1499078955.1,286046925.8,N
1499078956.0,286046925.8,N
1499078975.8,286046923.6,N
1499078995.6,286046924.1,N
1499079015.5,286046921.4,N
1499079035.3,286046921.5,N
1499079055.1,286046922.3,N
1499079075.9,286046921.9,N
1499079095.7,286046922.8,N
1499079115.5,286046920.0,N
1499079135.4,286046921.2,N
1499079155.2,286046918.7,Y
1499079175.0,286046950.6,N
1499079175.9,286046950.6,N
1499079195.8,286046950.9,N
1499079215.6,286046951.4,N
1499079235.4,286046949.6,N
1499079255.3,286046950.0,N
1499079275.1,286046947.0,N
1499079276.0,286046947.0,N
1499079295.8,286046947.0,N
1499079315.7,286046947.0,N
1499079335.5,286046948.1,N
1499079355.3,286046946.2,N
1499079375.2,286046945.6,N
1499079395.9,286046948.4,N
1499079415.7,286046945.9,N
1499079435.5,286046945.8,N
1499079455.4,286046946.2,N
1499079475.2,286046943.8,N
1499079495.0,286046944.6,N
1499079495.9,286046944.6,N
1499079515.8,286046944.7,N
1499079535.6,286046942.5,N
1499079555.4,286046942.8,N
1499079575.3,286046943.0,N
1499079595.1,286046943.0,N
